📊 Raw Sensor Data

Showing records 42076 to 42100 of 84,994 total

ID Distance (ft) Battery V Battery A Int Temp (°F) Int Humid (%) Ext Temp (°F) Solar V RSSI SNR Time Stamp
42931 15.6 4.02 0 100 43 91 5.10 -71 8 06/08/2025 03:45 PM
42930 15.6 4.06 0 99 43 93 5.10 -71 7 06/08/2025 03:30 PM
42929 15.6 4.02 0 98 41 92 5.10 -69 7 06/08/2025 03:15 PM
42928 15.6 4.02 0 94 42 91 5.10 -72 7 06/08/2025 03:00 PM
42927 15.6 4.02 0 90 43 86 5.10 -72 8 06/08/2025 02:45 PM
42926 15.6 4.14 0 89 43 81 5.10 -71 7 06/08/2025 02:30 PM
42925 15.6 4.08 0 88 43 81 5.10 -70 8 06/08/2025 02:15 PM
42924 15.6 4.02 0 89 42 82 5.10 -70 8 06/08/2025 02:00 PM
42923 15.6 4.03 0 89 41 83 5.10 -71 7 06/08/2025 01:45 PM
42922 15.6 4.02 0 88 41 82 5.10 -70 8 06/08/2025 01:30 PM
42921 15.6 4.02 0 85 42 80 5.10 -72 8 06/08/2025 01:15 PM
42920 15.6 4.02 0 83 42 77 5.10 -70 8 06/08/2025 01:00 PM
42919 15.6 4.02 0 82 43 78 5.10 -71 7 06/08/2025 12:45 PM
42918 15.6 4.02 0 80 43 74 5.10 -70 8 06/08/2025 12:30 PM
42917 15.7 4.12 0 80 43 78 5.10 -69 8 06/08/2025 12:15 PM
42916 15.7 4.02 0 79 43 80 5.10 -71 8 06/08/2025 12:00 PM
42915 15.7 4.02 0 79 43 79 5.10 -69 8 06/08/2025 11:45 AM
42914 15.7 4.02 0 76 43 77 5.10 -69 8 06/08/2025 11:30 AM
42913 15.7 4.02 0 76 43 75 5.10 -70 7 06/08/2025 11:15 AM
42912 15.7 4.02 0 76 43 74 5.10 -73 7 06/08/2025 11:00 AM
42911 15.7 4.09 0 75 43 77 5.10 -71 7 06/08/2025 10:45 AM
42910 15.7 4.02 0 74 43 70 5.10 -71 7 06/08/2025 10:30 AM
42909 15.7 4.02 0 74 42 74 5.10 -71 8 06/08/2025 10:15 AM
42908 15.7 4.02 0 73 43 72 5.10 -71 7 06/08/2025 10:00 AM
42907 15.7 4.03 0 71 43 70 5.10 -70 8 06/08/2025 09:45 AM